{"data":{"norad_id":62470,"intl_designator":"2024-254J","name":"STARLINK-11497 [DTC]","alt_names":[],"object_type":"PAYLOAD","status":"ACTIVE","operator":null,"country":"US","launch_date":"2024-12-31","launch_site_code":"AFETR","launch_vehicle":null,"mission":null,"orbit_class":"UNKNOWN","rcs_meters":null,"size_class":null,"mass_kg":null,"dimensions":null,"purposes":["comms"],"wikipedia_slug":null,"has_3d_model":false,"image_url":null,"decayed_at":null,"tle_current":{"epoch":"2026-09-20T23:24:39.509856Z","epoch_age_seconds":133496,"freshness":"FRESH","line1":"1 62470U 24254J   26263.97545729  .00178092  00000+0  13595-2 0  9994","line2":"2 62470  43.0004 125.9492 0004170 354.2656   5.8163 15.70874141100111","mean_motion":15.70874141,"eccentricity":0.000417,"inclination_deg":43.0004,"raan_deg":125.9492,"arg_perigee_deg":354.2656,"mean_anomaly_deg":5.8163,"bstar":0.0013595,"rev_number":10011,"period_min":91.668706130926,"perigee_km":353.58918108933,"apogee_km":359.20578284729,"semimajor_km":6734.5344819683,"source":"CELESTRAK","updated_at":"2026-09-22T09:00:49.612672Z"}}}